WGS F5 (USA 243)        
1 39168U 13024A   19259.11299400 -.00000292  00000-0  00000+0 0  9992
2 39168   0.0114 161.3245 0000398  28.2021 153.4416  1.00272536 23108
DELTA 4 R/B             
1 39169U 13024B   19258.67917277 -.00000266  00000-0 -14132-2 0  9998
2 39169  24.9065  69.3248 8179468  70.0279 355.3493  1.09791926 25290